Time,TemperatureF,DewpointF,PressureIn,WindDirection,WindDirectionDegrees,WindSpeedMPH,WindSpeedGustMPH,Humidity,HourlyPrecipIn,Conditions,Clouds,dailyrainin,SoftwareType,DateUTC
2013-02-01 00:05:00,30.0,13.6,29.82,SW,215,4.0,5.0,50,0.00,,,0.00,Wunderground v.1.15,2013-02-01 05:05:00,
2013-02-01 00:10:00,29.9,13.0,29.82,SW,228,3.0,3.0,49,0.00,,,0.00,Wunderground v.1.15,2013-02-01 05:10:00,
2013-02-01 00:20:00,29.8,13.9,29.82,WNW,291,4.0,4.0,51,0.00,,,0.00,Wunderground v.1.15,2013-02-01 05:20:00,
2013-02-01 00:25:00,29.8,13.9,29.82,SSW,210,4.0,4.0,51,0.00,,,0.00,Wunderground v.1.15,2013-02-01 05:25:00,
2013-02-01 00:35:00,29.7,13.3,29.82,South,176,4.0,8.0,50,0.00,,,0.00,Wunderground v.1.15,2013-02-01 05:35:00,
2013-02-01 00:45:00,29.4,13.5,29.83,WNW,297,2.0,8.0,51,0.00,,,0.00,Wunderground v.1.15,2013-02-01 05:45:00,
2013-02-01 00:50:00,29.5,13.6,29.83,WSW,255,3.0,3.0,51,0.00,,,0.00,Wunderground v.1.15,2013-02-01 05:50:00,
2013-02-01 00:55:00,29.4,13.5,29.82,West,278,3.0,15.0,51,0.00,,,0.00,Wunderground v.1.15,2013-02-01 05:55:00,
2013-02-01 01:00:00,29.4,13.5,29.83,NW,310,3.0,3.0,51,0.00,,,0.00,Wunderground v.1.15,2013-02-01 06:00:00,
2013-02-01 01:10:00,29.2,13.3,29.83,SSW,207,2.0,2.0,51,0.00,,,0.00,Wunderground v.1.15,2013-02-01 06:10:00,
2013-02-01 01:15:00,29.1,13.2,29.83,SW,235,2.0,3.0,51,0.00,,,0.00,Wunderground v.1.15,2013-02-01 06:15:00,
2013-02-01 01:20:00,29.1,13.6,29.83,SSW,195,2.0,2.0,52,0.00,,,0.00,Wunderground v.1.15,2013-02-01 06:20:00,
2013-02-01 01:25:00,29.0,13.6,29.83,SW,225,2.0,3.0,52,0.00,,,0.00,Wunderground v.1.15,2013-02-01 06:25:00,
2013-02-01 01:30:00,28.9,13.5,29.83,SW,226,2.0,2.0,52,0.00,,,0.00,Wunderground v.1.15,2013-02-01 06:30:00,
2013-02-01 01:40:00,28.8,13.4,29.83,WSW,238,2.0,2.0,52,0.00,,,0.00,Wunderground v.1.15,2013-02-01 06:40:00,
2013-02-01 01:45:00,28.6,13.6,29.83,WNW,288,1.0,2.0,53,0.00,,,0.00,Wunderground v.1.15,2013-02-01 06:45:00,
2013-02-01 01:50:00,28.6,14.0,29.83,West,278,1.0,5.0,54,0.00,,,0.00,Wunderground v.1.15,2013-02-01 06:50:00,
2013-02-01 02:00:00,28.7,13.3,29.84,SW,233,2.0,2.0,52,0.00,,,0.00,Wunderground v.1.15,2013-02-01 07:00:00,
2013-02-01 02:05:00,28.6,13.6,29.84,WSW,250,2.0,2.0,53,0.00,,,0.00,Wunderground v.1.15,2013-02-01 07:05:00,
2013-02-01 02:15:00,28.6,13.6,29.84,West,264,2.0,3.0,53,0.00,,,0.00,Wunderground v.1.15,2013-02-01 07:15:00,
2013-02-01 02:20:00,28.5,13.9,29.83,SW,235,2.0,2.0,54,0.00,,,0.00,Wunderground v.1.15,2013-02-01 07:20:00,
2013-02-01 02:25:00,28.4,13.9,29.83,WNW,285,1.0,2.0,54,0.00,,,0.00,Wunderground v.1.15,2013-02-01 07:25:00,
2013-02-01 02:30:00,28.4,13.4,29.82,South,184,2.0,2.0,53,0.00,,,0.00,Wunderground v.1.15,2013-02-01 07:30:00,
2013-02-01 02:35:00,28.3,13.8,29.83,SW,235,2.0,2.0,54,0.00,,,0.00,Wunderground v.1.15,2013-02-01 07:35:00,
2013-02-01 02:45:00,28.2,13.7,29.83,East,101,1.0,1.0,54,0.00,,,0.00,Wunderground v.1.15,2013-02-01 07:45:00,
2013-02-01 02:55:00,28.0,14.3,29.83,NW,317,1.0,1.0,56,0.00,,,0.00,Wunderground v.1.15,2013-02-01 07:55:00,
2013-02-01 03:00:00,28.1,15.2,29.83,WSW,238,1.0,1.0,58,0.00,,,0.00,Wunderground v.1.15,2013-02-01 08:00:00,
2013-02-01 03:05:00,28.0,15.1,29.83,West,273,1.0,2.0,58,0.00,,,0.00,Wunderground v.1.15,2013-02-01 08:05:00,
2013-02-01 03:10:00,28.0,15.1,29.83,South,173,1.0,1.0,58,0.00,,,0.00,Wunderground v.1.15,2013-02-01 08:10:00,
2013-02-01 03:15:00,28.0,14.7,29.83,North,353,2.0,2.0,57,0.00,,,0.00,Wunderground v.1.15,2013-02-01 08:15:00,
2013-02-01 03:20:00,28.1,14.8,29.83,West,260,2.0,4.0,57,0.00,,,0.00,Wunderground v.1.15,2013-02-01 08:20:00,
2013-02-01 03:25:00,28.1,14.8,29.83,West,266,3.0,5.0,57,0.00,,,0.00,Wunderground v.1.15,2013-02-01 08:25:00,
2013-02-01 03:35:00,28.1,15.2,29.83,NW,305,2.0,4.0,58,0.00,,,0.00,Wunderground v.1.15,2013-02-01 08:35:00,
2013-02-01 03:45:00,28.1,15.2,29.83,North,355,3.0,3.0,58,0.00,,,0.00,Wunderground v.1.15,2013-02-01 08:45:00,
2013-02-01 03:55:00,27.9,14.6,29.83,WNW,292,2.0,2.0,57,0.00,,,0.00,Wunderground v.1.15,2013-02-01 08:55:00,
2013-02-01 04:05:00,27.9,14.6,29.83,WSW,256,3.0,6.0,57,0.00,,,0.00,Wunderground v.1.15,2013-02-01 09:05:00,
2013-02-01 04:10:00,28.0,15.1,29.83,West,277,3.0,3.0,58,0.00,,,0.00,Wunderground v.1.15,2013-02-01 09:10:00,
2013-02-01 04:15:00,27.8,14.9,29.83,West,271,2.0,3.0,58,0.00,,,0.00,Wunderground v.1.15,2013-02-01 09:15:00,
2013-02-01 04:20:00,27.8,14.9,29.83,WSW,255,2.0,3.0,58,0.00,,,0.00,Wunderground v.1.15,2013-02-01 09:20:00,
2013-02-01 04:25:00,27.9,14.6,29.83,West,266,2.0,3.0,57,0.00,,,0.00,Wunderground v.1.15,2013-02-01 09:25:00,
2013-02-01 04:35:00,28.0,14.7,29.83,WSW,255,2.0,4.0,57,0.00,,,0.00,Wunderground v.1.15,2013-02-01 09:35:00,
2013-02-01 04:40:00,28.0,14.7,29.83,West,262,2.0,3.0,57,0.00,,,0.00,Wunderground v.1.15,2013-02-01 09:40:00,
2013-02-01 04:50:00,27.9,14.6,29.83,SE,124,2.0,2.0,57,0.00,,,0.00,Wunderground v.1.15,2013-02-01 09:50:00,
2013-02-01 05:00:00,27.8,14.9,29.83,WSW,252,1.0,1.0,58,0.00,,,0.00,Wunderground v.1.15,2013-02-01 10:00:00,
2013-02-01 05:05:00,27.8,14.9,29.83,SSE,155,1.0,1.0,58,0.00,,,0.00,Wunderground v.1.15,2013-02-01 10:05:00,
2013-02-01 05:10:00,27.9,15.4,29.83,SW,226,1.0,1.0,59,0.00,,,0.00,Wunderground v.1.15,2013-02-01 10:10:00,
2013-02-01 05:15:00,28.0,15.5,29.83,North,355,1.0,2.0,59,0.00,,,0.00,Wunderground v.1.15,2013-02-01 10:15:00,
2013-02-01 05:20:00,28.0,15.9,29.83,WNW,285,1.0,1.0,60,0.00,,,0.00,Wunderground v.1.15,2013-02-01 10:20:00,
2013-02-01 05:25:00,27.9,15.8,29.83,SE,141,1.0,1.0,60,0.00,,,0.00,Wunderground v.1.15,2013-02-01 10:25:00,
2013-02-01 05:35:00,27.9,15.4,29.83,SW,235,1.0,1.0,59,0.00,,,0.00,Wunderground v.1.15,2013-02-01 10:35:00,
2013-02-01 05:45:00,27.8,15.3,29.83,WSW,252,1.0,2.0,59,0.00,,,0.00,Wunderground v.1.15,2013-02-01 10:45:00,
2013-02-01 05:50:00,27.8,15.7,29.83,SW,215,1.0,1.0,60,0.00,,,0.00,Wunderground v.1.15,2013-02-01 10:50:00,
2013-02-01 05:55:00,27.8,15.3,29.84,NW,314,1.0,1.0,59,0.00,,,0.00,Wunderground v.1.15,2013-02-01 10:55:00,
2013-02-01 06:05:00,27.9,16.2,29.84,SW,229,1.0,1.0,61,0.00,,,0.00,Wunderground v.1.15,2013-02-01 11:05:00,
2013-02-01 06:10:00,27.8,15.7,29.84,WNW,285,1.0,1.0,60,0.00,,,0.00,Wunderground v.1.15,2013-02-01 11:10:00,
2013-02-01 06:15:00,27.8,15.7,29.84,NE,53,0.0,1.0,60,0.00,,,0.00,Wunderground v.1.15,2013-02-01 11:15:00,
2013-02-01 06:25:00,27.9,16.2,29.84,NW,305,0.0,0.0,61,0.00,,,0.00,Wunderground v.1.15,2013-02-01 11:25:00,
2013-02-01 06:35:00,28.0,16.3,29.84,South,172,0.0,2.0,61,0.00,,,0.00,Wunderground v.1.15,2013-02-01 11:35:00,
2013-02-01 06:45:00,28.2,16.5,29.84,WSW,243,0.0,0.0,61,0.00,,,0.00,Wunderground v.1.15,2013-02-01 11:45:00,
2013-02-01 06:55:00,28.3,16.2,29.84,WNW,288,0.0,1.0,60,0.00,,,0.00,Wunderground v.1.15,2013-02-01 11:55:00,
2013-02-01 07:00:00,28.5,16.7,29.83,WNW,291,1.0,1.0,61,0.00,,,0.00,Wunderground v.1.15,2013-02-01 12:00:00,
2013-02-01 07:05:00,28.6,16.5,29.83,WNW,288,2.0,4.0,60,0.00,,,0.00,Wunderground v.1.15,2013-02-01 12:05:00,
2013-02-01 07:15:00,28.8,16.3,29.83,NW,314,2.0,2.0,59,0.00,,,0.00,Wunderground v.1.15,2013-02-01 12:15:00,
2013-02-01 07:20:00,28.9,16.7,29.83,NW,308,2.0,2.0,60,0.00,,,0.00,Wunderground v.1.15,2013-02-01 12:20:00,
2013-02-01 07:30:00,29.1,16.5,29.83,NW,307,2.0,2.0,59,0.00,,,0.00,Wunderground v.1.15,2013-02-01 12:30:00,
2013-02-01 07:35:00,29.2,17.0,29.83,West,280,2.0,2.0,60,0.00,,,0.00,Wunderground v.1.15,2013-02-01 12:35:00,
2013-02-01 07:40:00,29.2,17.0,29.84,WNW,283,1.0,1.0,60,0.00,,,0.00,Wunderground v.1.15,2013-02-01 12:40:00,
2013-02-01 07:45:00,29.3,16.7,29.83,WNW,291,1.0,1.0,59,0.00,,,0.00,Wunderground v.1.15,2013-02-01 12:45:00,
2013-02-01 07:50:00,29.4,16.8,29.83,NW,311,1.0,2.0,59,0.00,,,0.00,Wunderground v.1.15,2013-02-01 12:50:00,
2013-02-01 07:55:00,29.6,16.6,29.83,NW,319,2.0,4.0,58,0.00,,,0.00,Wunderground v.1.15,2013-02-01 12:55:00,
2013-02-01 08:00:00,29.7,16.3,29.83,NW,305,2.0,2.0,57,0.00,,,0.00,Wunderground v.1.15,2013-02-01 13:00:00,
2013-02-01 08:05:00,29.8,16.4,29.84,NW,309,2.0,2.0,57,0.00,,,0.00,Wunderground v.1.15,2013-02-01 13:05:00,
2013-02-01 08:15:00,30.1,17.1,29.84,NW,319,2.0,4.0,58,0.00,,,0.00,Wunderground v.1.15,2013-02-01 13:15:00,
2013-02-01 08:20:00,30.1,16.7,29.84,NW,305,3.0,3.0,57,0.00,,,0.00,Wunderground v.1.15,2013-02-01 13:20:00,
2013-02-01 08:25:00,30.2,16.8,29.85,WNW,302,3.0,5.0,57,0.00,,,0.00,Wunderground v.1.15,2013-02-01 13:25:00,
2013-02-01 08:30:00,30.3,16.9,29.85,NW,307,4.0,4.0,57,0.00,,,0.00,Wunderground v.1.15,2013-02-01 13:30:00,
2013-02-01 08:40:00,30.4,17.4,29.84,NW,308,5.0,5.0,58,0.00,,,0.00,Wunderground v.1.15,2013-02-01 13:40:00,
2013-02-01 08:50:00,30.4,18.2,29.84,NW,315,5.0,5.0,60,0.00,,,0.00,Wunderground v.1.15,2013-02-01 13:50:00,
2013-02-01 08:55:00,30.4,18.2,29.84,NW,318,6.0,6.0,60,0.00,,,0.00,Wunderground v.1.15,2013-02-01 13:55:00,
2013-02-01 09:05:00,30.2,18.7,29.85,NW,311,8.0,8.0,62,0.00,,,0.00,Wunderground v.1.15,2013-02-01 14:05:00,
2013-02-01 09:10:00,30.1,19.0,29.85,West,266,6.0,6.0,63,0.00,,,0.00,Wunderground v.1.15,2013-02-01 14:10:00,
2013-02-01 09:15:00,30.1,19.4,29.85,WNW,296,5.0,6.0,64,0.00,,,0.00,Wunderground v.1.15,2013-02-01 14:15:00,
2013-02-01 09:25:00,30.1,19.4,29.85,West,277,5.0,5.0,64,0.00,,,0.00,Wunderground v.1.15,2013-02-01 14:25:00,
2013-02-01 09:30:00,30.1,19.0,29.85,WNW,288,4.0,5.0,63,0.00,,,0.00,Wunderground v.1.15,2013-02-01 14:30:00,
2013-02-01 09:40:00,30.4,18.2,29.85,West,281,7.0,9.0,60,0.00,,,0.00,Wunderground v.1.15,2013-02-01 14:40:00,
2013-02-01 09:45:00,30.4,18.5,29.85,WNW,293,7.0,9.0,61,0.00,,,0.00,Wunderground v.1.15,2013-02-01 14:45:00,
2013-02-01 09:50:00,30.4,18.5,29.85,WNW,288,8.0,8.0,61,0.00,,,0.00,Wunderground v.1.15,2013-02-01 14:50:00,
2013-02-01 09:55:00,30.5,18.6,29.85,NW,304,7.0,8.0,61,0.00,,,0.00,Wunderground v.1.15,2013-02-01 14:55:00,
2013-02-01 10:00:00,30.3,18.5,29.85,NW,314,9.0,9.0,61,0.00,,,0.00,Wunderground v.1.15,2013-02-01 15:00:00,
2013-02-01 10:05:00,30.1,18.6,29.85,NW,321,11.0,11.0,62,0.00,,,0.00,Wunderground v.1.15,2013-02-01 15:05:00,
2013-02-01 10:10:00,29.8,19.1,29.85,WNW,291,10.0,13.0,64,0.00,,,0.00,Wunderground v.1.15,2013-02-01 15:10:00,
2013-02-01 10:15:00,29.7,19.0,29.85,NW,304,10.0,13.0,64,0.00,,,0.00,Wunderground v.1.15,2013-02-01 15:15:00,
2013-02-01 10:25:00,29.4,19.4,29.85,NW,326,10.0,14.0,66,0.00,,,0.00,Wunderground v.1.15,2013-02-01 15:25:00,
2013-02-01 10:30:00,28.9,20.3,29.85,NW,310,10.0,20.0,70,0.00,,,0.00,Wunderground v.1.15,2013-02-01 15:30:00,
2013-02-01 10:35:00,28.4,19.9,29.85,NW,321,12.0,20.0,70,0.00,,,0.00,Wunderground v.1.15,2013-02-01 15:35:00,
2013-02-01 10:40:00,28.3,20.1,29.85,NNW,328,11.0,17.0,71,0.00,,,0.00,Wunderground v.1.15,2013-02-01 15:40:00,
2013-02-01 10:50:00,27.5,20.6,29.85,NW,321,13.0,13.0,75,0.00,,,0.00,Wunderground v.1.15,2013-02-01 15:50:00,
2013-02-01 10:55:00,27.4,19.6,29.85,NW,311,12.0,13.0,72,0.00,,,0.00,Wunderground v.1.15,2013-02-01 15:55:00,
2013-02-01 11:05:00,27.9,18.4,29.85,NW,319,9.0,10.0,67,0.00,,,0.00,Wunderground v.1.15,2013-02-01 16:05:00,
2013-02-01 11:10:00,28.3,16.9,29.85,NW,321,8.0,9.0,62,0.00,,,0.00,Wunderground v.1.15,2013-02-01 16:10:00,
2013-02-01 11:15:00,28.8,14.2,29.85,NW,319,10.0,13.0,54,0.00,,,0.00,Wunderground v.1.15,2013-02-01 16:15:00,
2013-02-01 11:25:00,29.0,13.1,29.86,West,280,12.0,12.0,51,0.00,,,0.00,Wunderground v.1.15,2013-02-01 16:25:00,
2013-02-01 11:30:00,29.2,12.4,29.85,NW,316,12.0,12.0,49,0.00,,,0.00,Wunderground v.1.15,2013-02-01 16:30:00,
2013-02-01 11:35:00,29.3,12.9,29.85,NW,315,12.0,18.0,50,0.00,,,0.00,Wunderground v.1.15,2013-02-01 16:35:00,
2013-02-01 11:45:00,29.3,11.5,29.86,NNW,342,13.0,14.0,47,0.00,,,0.00,Wunderground v.1.15,2013-02-01 16:45:00,
2013-02-01 11:50:00,29.3,11.5,29.86,NW,321,13.0,13.0,47,0.00,,,0.00,Wunderground v.1.15,2013-02-01 16:50:00,
2013-02-01 11:55:00,29.6,12.3,29.86,NW,314,12.0,13.0,48,0.00,,,0.00,Wunderground v.1.15,2013-02-01 16:55:00,
2013-02-01 12:05:00,29.6,10.3,29.87,NW,319,13.0,18.0,44,0.00,,,0.00,Wunderground v.1.15,2013-02-01 17:05:00,
2013-02-01 12:15:00,29.6,10.8,29.86,NNW,335,15.0,17.0,45,0.00,,,0.00,Wunderground v.1.15,2013-02-01 17:15:00,
2013-02-01 12:20:00,29.8,10.5,29.86,NW,321,14.0,14.0,44,0.00,,,0.00,Wunderground v.1.15,2013-02-01 17:20:00,
2013-02-01 12:30:00,30.3,11.0,29.86,WNW,300,12.0,12.0,44,0.00,,,0.00,Wunderground v.1.15,2013-02-01 17:30:00,
2013-02-01 12:35:00,30.5,10.6,29.86,West,280,12.0,12.0,43,0.00,,,0.00,Wunderground v.1.15,2013-02-01 17:35:00,
2013-02-01 12:40:00,30.5,11.1,29.87,NW,318,13.0,13.0,44,0.00,,,0.00,Wunderground v.1.15,2013-02-01 17:40:00,
2013-02-01 12:50:00,30.6,10.2,29.87,NW,305,11.0,14.0,42,0.00,,,0.00,Wunderground v.1.15,2013-02-01 17:50:00,
2013-02-01 13:00:00,30.2,9.3,29.88,NW,307,13.0,13.0,41,0.00,,,0.00,Wunderground v.1.15,2013-02-01 18:00:00,
2013-02-01 13:05:00,30.2,9.3,29.88,North,358,12.0,14.0,41,0.00,,,0.00,Wunderground v.1.15,2013-02-01 18:05:00,
2013-02-01 13:15:00,30.4,8.9,29.88,WNW,302,12.0,15.0,40,0.00,,,0.00,Wunderground v.1.15,2013-02-01 18:15:00,
2013-02-01 13:20:00,30.5,10.1,29.88,NW,314,11.0,12.0,42,0.00,,,0.00,Wunderground v.1.15,2013-02-01 18:20:00,
2013-02-01 13:30:00,30.8,10.4,29.89,WNW,302,12.0,12.0,42,0.00,,,0.00,Wunderground v.1.15,2013-02-01 18:30:00,
2013-02-01 13:35:00,30.9,11.0,29.89,West,277,12.0,13.0,43,0.00,,,0.00,Wunderground v.1.15,2013-02-01 18:35:00,
2013-02-01 13:45:00,30.2,10.4,29.89,NW,305,12.0,15.0,43,0.00,,,0.00,Wunderground v.1.15,2013-02-01 18:45:00,
2013-02-01 13:50:00,30.7,10.3,29.89,NW,305,13.0,14.0,42,0.00,,,0.00,Wunderground v.1.15,2013-02-01 18:50:00,
2013-02-01 14:00:00,30.8,9.8,29.90,WNW,294,14.0,14.0,41,0.00,,,0.00,Wunderground v.1.15,2013-02-01 19:00:00,
2013-02-01 14:10:00,30.8,11.4,29.91,WNW,291,11.0,13.0,44,0.00,,,0.00,Wunderground v.1.15,2013-02-01 19:10:00,
2013-02-01 14:15:00,30.9,10.5,29.91,NW,316,12.0,13.0,42,0.00,,,0.00,Wunderground v.1.15,2013-02-01 19:15:00,
2013-02-01 14:25:00,31.4,12.0,29.91,WNW,293,11.0,24.0,44,0.00,,,0.00,Wunderground v.1.15,2013-02-01 19:25:00,
2013-02-01 14:30:00,31.1,10.1,29.92,West,274,14.0,14.0,41,0.00,,,0.00,Wunderground v.1.15,2013-02-01 19:30:00,
2013-02-01 14:35:00,31.4,10.4,29.92,NW,321,12.0,14.0,41,0.00,,,0.00,Wunderground v.1.15,2013-02-01 19:35:00,
2013-02-01 14:45:00,30.9,8.8,29.92,NW,314,11.0,14.0,39,0.00,,,0.00,Wunderground v.1.15,2013-02-01 19:45:00,
2013-02-01 14:50:00,30.5,10.1,29.93,NW,310,13.0,13.0,42,0.00,,,0.00,Wunderground v.1.15,2013-02-01 19:50:00,
2013-02-01 15:00:00,29.6,11.8,29.94,NW,307,11.0,11.0,47,0.00,,,0.00,Wunderground v.1.15,2013-02-01 20:00:00,
2013-02-01 15:10:00,30.4,11.1,29.94,NNW,338,11.0,13.0,44,0.00,,,0.00,Wunderground v.1.15,2013-02-01 20:10:00,
2013-02-01 15:15:00,30.9,12.0,29.94,NNW,339,11.0,13.0,45,0.00,,,0.00,Wunderground v.1.15,2013-02-01 20:15:00,
2013-02-01 15:20:00,30.9,10.5,29.95,NNW,337,12.0,12.0,42,0.00,,,0.00,Wunderground v.1.15,2013-02-01 20:20:00,
2013-02-01 15:30:00,30.8,9.8,29.96,NW,326,13.0,17.0,41,0.00,,,0.00,Wunderground v.1.15,2013-02-01 20:30:00,
2013-02-01 15:40:00,30.4,11.1,29.97,WNW,302,11.0,11.0,44,0.00,,,0.00,Wunderground v.1.15,2013-02-01 20:40:00,
2013-02-01 15:45:00,29.8,13.9,29.97,NNW,334,10.0,14.0,51,0.00,,,0.00,Wunderground v.1.15,2013-02-01 20:45:00,
2013-02-01 15:55:00,30.2,8.7,29.97,NNW,330,12.0,12.0,40,0.00,,,0.00,Wunderground v.1.15,2013-02-01 20:55:00,
2013-02-01 16:00:00,30.2,8.7,29.98,NW,319,12.0,15.0,40,0.00,,,0.00,Wunderground v.1.15,2013-02-01 21:00:00,
2013-02-01 16:10:00,30.4,10.0,29.98,WNW,302,9.0,11.0,42,0.00,,,0.00,Wunderground v.1.15,2013-02-01 21:10:00,
2013-02-01 16:15:00,30.6,10.2,29.99,NNW,328,8.0,11.0,42,0.00,,,0.00,Wunderground v.1.15,2013-02-01 21:15:00,
2013-02-01 16:20:00,30.4,10.0,29.99,West,280,9.0,10.0,42,0.00,,,0.00,Wunderground v.1.15,2013-02-01 21:20:00,
2013-02-01 16:30:00,29.6,8.7,30.00,NW,307,12.0,12.0,41,0.00,,,0.00,Wunderground v.1.15,2013-02-01 21:30:00,
2013-02-01 16:40:00,29.4,9.1,30.01,NNW,328,10.0,13.0,42,0.00,,,0.00,Wunderground v.1.15,2013-02-01 21:40:00,
2013-02-01 16:45:00,29.4,9.1,30.01,NW,312,9.0,13.0,42,0.00,,,0.00,Wunderground v.1.15,2013-02-01 21:45:00,
2013-02-01 16:50:00,29.4,8.6,30.02,NNW,330,9.0,9.0,41,0.00,,,0.00,Wunderground v.1.15,2013-02-01 21:50:00,
2013-02-01 17:00:00,29.2,9.4,30.03,WNW,296,11.0,11.0,43,0.00,,,0.00,Wunderground v.1.15,2013-02-01 22:00:00,
2013-02-01 17:10:00,28.9,9.7,30.03,NW,314,10.0,10.0,44,0.00,,,0.00,Wunderground v.1.15,2013-02-01 22:10:00,
2013-02-01 17:15:00,28.8,9.6,30.03,NW,321,8.0,11.0,44,0.00,,,0.00,Wunderground v.1.15,2013-02-01 22:15:00,
2013-02-01 17:20:00,28.9,9.7,30.04,WNW,299,7.0,8.0,44,0.00,,,0.00,Wunderground v.1.15,2013-02-01 22:20:00,
2013-02-01 17:25:00,28.9,9.7,30.04,NW,319,8.0,13.0,44,0.00,,,0.00,Wunderground v.1.15,2013-02-01 22:25:00,
2013-02-01 17:35:00,29.0,8.2,30.05,NW,314,9.0,15.0,41,0.00,,,0.00,Wunderground v.1.15,2013-02-01 22:35:00,
2013-02-01 17:45:00,29.1,8.8,30.05,WNW,302,10.0,10.0,42,0.00,,,0.00,Wunderground v.1.15,2013-02-01 22:45:00,
2013-02-01 17:50:00,29.0,8.7,30.06,NW,314,10.0,10.0,42,0.00,,,0.00,Wunderground v.1.15,2013-02-01 22:50:00,
2013-02-01 17:55:00,28.9,9.2,30.06,NNW,337,10.0,10.0,43,0.00,,,0.00,Wunderground v.1.15,2013-02-01 22:55:00,
2013-02-01 18:00:00,28.9,8.1,30.06,WNW,300,8.0,8.0,41,0.00,,,0.00,Wunderground v.1.15,2013-02-01 23:00:00,
2013-02-01 18:05:00,28.8,9.1,30.07,WNW,288,7.0,8.0,43,0.00,,,0.00,Wunderground v.1.15,2013-02-01 23:05:00,
2013-02-01 18:15:00,28.7,8.5,30.07,NNW,340,6.0,10.0,42,0.00,,,0.00,Wunderground v.1.15,2013-02-01 23:15:00,
2013-02-01 18:20:00,28.6,8.9,30.08,NW,312,7.0,7.0,43,0.00,,,0.00,Wunderground v.1.15,2013-02-01 23:20:00,
2013-02-01 18:30:00,28.4,10.2,30.09,NW,316,8.0,14.0,46,0.00,,,0.00,Wunderground v.1.15,2013-02-01 23:30:00,
2013-02-01 18:40:00,28.2,10.5,30.09,NW,305,8.0,9.0,47,0.00,,,0.00,Wunderground v.1.15,2013-02-01 23:40:00,
2013-02-01 18:50:00,28.3,10.6,30.10,NW,321,10.0,10.0,47,0.00,,,0.00,Wunderground v.1.15,2013-02-01 23:50:00,
2013-02-01 18:55:00,28.2,10.0,30.10,NW,304,9.0,16.0,46,0.00,,,0.00,Wunderground v.1.15,2013-02-01 23:55:00,
2013-02-01 19:00:00,28.1,9.5,30.11,NW,308,10.0,11.0,45,0.00,,,0.00,Wunderground v.1.15,2013-02-02 00:00:00,
2013-02-01 19:05:00,28.1,9.9,30.11,West,271,10.0,11.0,46,0.00,,,0.00,Wunderground v.1.15,2013-02-02 00:05:00,
2013-02-01 19:15:00,27.7,11.0,30.12,NNW,333,10.0,15.0,49,0.00,,,0.00,Wunderground v.1.15,2013-02-02 00:15:00,
2013-02-01 19:20:00,27.6,11.4,30.12,West,274,10.0,10.0,50,0.00,,,0.00,Wunderground v.1.15,2013-02-02 00:20:00,
2013-02-01 19:30:00,27.6,10.9,30.13,NW,309,9.0,9.0,49,0.00,,,0.00,Wunderground v.1.15,2013-02-02 00:30:00,
2013-02-01 19:40:00,27.6,10.9,30.13,NNW,345,8.0,9.0,49,0.00,,,0.00,Wunderground v.1.15,2013-02-02 00:40:00,
2013-02-01 19:45:00,27.5,10.8,30.14,NW,314,7.0,9.0,49,0.00,,,0.00,Wunderground v.1.15,2013-02-02 00:45:00,
2013-02-01 19:50:00,27.5,10.8,30.14,WNW,294,6.0,6.0,49,0.00,,,0.00,Wunderground v.1.15,2013-02-02 00:50:00,
2013-02-01 19:55:00,27.4,9.8,30.14,WNW,302,7.0,11.0,47,0.00,,,0.00,Wunderground v.1.15,2013-02-02 00:55:00,
2013-02-01 20:05:00,27.3,10.2,30.14,NW,326,6.0,9.0,48,0.00,,,0.00,Wunderground v.1.15,2013-02-02 01:05:00,
2013-02-01 20:10:00,27.2,10.1,30.15,WNW,300,7.0,8.0,48,0.00,,,0.00,Wunderground v.1.15,2013-02-02 01:10:00,
2013-02-01 20:15:00,27.1,10.4,30.15,NW,305,7.0,8.0,49,0.00,,,0.00,Wunderground v.1.15,2013-02-02 01:15:00,
2013-02-01 20:20:00,27.1,10.4,30.15,WNW,302,7.0,7.0,49,0.00,,,0.00,Wunderground v.1.15,2013-02-02 01:20:00,
2013-02-01 20:25:00,27.0,10.8,30.15,WNW,283,7.0,7.0,50,0.00,,,0.00,Wunderground v.1.15,2013-02-02 01:25:00,
2013-02-01 20:30:00,27.0,10.4,30.16,West,276,7.0,7.0,49,0.00,,,0.00,Wunderground v.1.15,2013-02-02 01:30:00,
2013-02-01 20:40:00,27.0,9.9,30.16,WNW,297,7.0,8.0,48,0.00,,,0.00,Wunderground v.1.15,2013-02-02 01:40:00,
2013-02-01 20:45:00,26.9,9.8,30.17,WNW,291,7.0,8.0,48,0.00,,,0.00,Wunderground v.1.15,2013-02-02 01:45:00,
2013-02-01 20:55:00,26.7,9.6,30.17,WNW,297,6.0,8.0,48,0.00,,,0.00,Wunderground v.1.15,2013-02-02 01:55:00,
2013-02-01 21:00:00,26.5,9.4,30.17,WNW,294,6.0,6.0,48,0.00,,,0.00,Wunderground v.1.15,2013-02-02 02:00:00,
2013-02-01 21:10:00,26.4,10.3,30.18,WNW,299,5.0,5.0,50,0.00,,,0.00,Wunderground v.1.15,2013-02-02 02:10:00,
2013-02-01 21:15:00,26.1,10.0,30.18,NW,319,5.0,7.0,50,0.00,,,0.00,Wunderground v.1.15,2013-02-02 02:15:00,
2013-02-01 21:25:00,25.9,8.9,30.18,WNW,300,6.0,8.0,48,0.00,,,0.00,Wunderground v.1.15,2013-02-02 02:25:00,
2013-02-01 21:30:00,25.9,9.3,30.19,NW,305,6.0,6.0,49,0.00,,,0.00,Wunderground v.1.15,2013-02-02 02:30:00,
2013-02-01 21:40:00,25.7,9.2,30.19,WNW,288,6.0,7.0,49,0.00,,,0.00,Wunderground v.1.15,2013-02-02 02:40:00,
2013-02-01 21:45:00,25.7,10.0,30.19,West,274,6.0,7.0,51,0.00,,,0.00,Wunderground v.1.15,2013-02-02 02:45:00,
2013-02-01 21:50:00,25.5,9.0,30.19,NW,305,6.0,10.0,49,0.00,,,0.00,Wunderground v.1.15,2013-02-02 02:50:00,
2013-02-01 22:00:00,25.4,10.2,30.20,NW,316,5.0,5.0,52,0.00,,,0.00,Wunderground v.1.15,2013-02-02 03:00:00,
2013-02-01 22:05:00,25.4,10.2,30.20,West,264,5.0,5.0,52,0.00,,,0.00,Wunderground v.1.15,2013-02-02 03:05:00,
2013-02-01 22:10:00,25.3,10.1,30.20,NNW,329,6.0,9.0,52,0.00,,,0.00,Wunderground v.1.15,2013-02-02 03:10:00,
2013-02-01 22:20:00,25.2,9.6,30.21,NW,317,6.0,8.0,51,0.00,,,0.00,Wunderground v.1.15,2013-02-02 03:20:00,
2013-02-01 22:25:00,25.1,9.9,30.21,NW,310,6.0,8.0,52,0.00,,,0.00,Wunderground v.1.15,2013-02-02 03:25:00,
2013-02-01 22:30:00,25.0,9.4,30.21,NW,314,6.0,6.0,51,0.00,,,0.00,Wunderground v.1.15,2013-02-02 03:30:00,
2013-02-01 22:40:00,24.9,9.7,30.21,NW,305,5.0,8.0,52,0.00,,,0.00,Wunderground v.1.15,2013-02-02 03:40:00,
2013-02-01 22:45:00,24.8,8.8,30.21,WNW,291,6.0,8.0,50,0.00,,,0.00,Wunderground v.1.15,2013-02-02 03:45:00,
2013-02-01 22:50:00,24.8,9.6,30.21,NW,316,6.0,6.0,52,0.00,,,0.00,Wunderground v.1.15,2013-02-02 03:50:00,
2013-02-01 22:55:00,24.7,10.0,30.22,WNW,291,5.0,6.0,53,0.00,,,0.00,Wunderground v.1.15,2013-02-02 03:55:00,
2013-02-01 23:05:00,24.6,9.5,30.22,WNW,285,6.0,13.0,52,0.00,,,0.00,Wunderground v.1.15,2013-02-02 04:05:00,
2013-02-01 23:10:00,24.6,9.9,30.23,NW,305,6.0,6.0,53,0.00,,,0.00,Wunderground v.1.15,2013-02-02 04:10:00,
2013-02-01 23:15:00,24.5,9.4,30.22,NW,314,6.0,6.0,52,0.00,,,0.00,Wunderground v.1.15,2013-02-02 04:15:00,
2013-02-01 23:20:00,24.4,9.3,30.23,NW,321,7.0,7.0,52,0.00,,,0.00,Wunderground v.1.15,2013-02-02 04:20:00,
2013-02-01 23:30:00,24.3,9.2,30.23,NW,319,5.0,5.0,52,0.00,,,0.00,Wunderground v.1.15,2013-02-02 04:30:00,
2013-02-01 23:40:00,24.1,9.8,30.23,WNW,299,4.0,4.0,54,0.00,,,0.00,Wunderground v.1.15,2013-02-02 04:40:00,
2013-02-01 23:45:00,24.0,10.2,30.23,NW,316,5.0,6.0,55,0.00,,,0.00,Wunderground v.1.15,2013-02-02 04:45:00,
2013-02-01 23:55:00,23.8,10.0,30.23,West,277,5.0,5.0,55,0.00,,,0.00,Wunderground v.1.15,2013-02-02 04:55:00,